Temp
69 69 72 71 73 61 58 62 58 62 64 66 49 50 50 49 46 47 46 53 52 58 67 70 64 66 68 69 72 74 73 71 72 73 74 75 76 76 76 76 76 76 77 77 77 77 77 77 77 76 76 77 77 77 76 75 76 76 75 74 74 74 73
70 71 73 73 75 68 61 57 61 63 64 61 58 51 45 45 43 43 47 53 51 54 51 56 66 66 69 67 68 72 73 70 71 73 73 74 75 76 76 77 77 77 77 77 78 78 78 78 78 77 77 78 78 78 77 76 76 75 75 74 74 74 73
66 70 72 70 72 72 75 62 68 68 53 56 47 49 43 41 42 40 44 49 48 51 55 54 63 66 71 69 65 66 68 69 72 74 74 75 76 76 75 76 76 76 76 77 77 78 79 79 78 78 79 78 78 78 78 78 77 77 76 76 75 74 74
66 67 69 62 68 70 67 68 66 65 62 50 51 54 48 52 41 41 43 46 50 54 58 64 69 69 70 70 63 66 71 72 73 74 74 74 74 74 75 76 76 77 77 78 78 79 79 78 78 79 80 80 79 79 78 78 78 77 76 75 75 74 74
65 62 62 67 69 61 60 63 57 63 63 59 57 54 50 52 40 40 38 44 43 52 60 65 71 69 69 70 68 68 70 72 74 74 74 74 74 75 75 76 76 77 77 78 79 79 80 80 80 80 80 80 80 80 79 79 77 77 76 76 75 74 74
55 60 62 71 72 68 64 65 59 61 55 57 54 52 54 48 50 38 40 48 44 59 61 68 71 71 71 70 72 71 71 72 72 74 75 75 74 74 76 77 77 77 77 78 79 79 79 79 79 79 80 80 80 79 80 79 79 78 78 76 75 74 74
60 64 67 65 71 73 69 70 64 67 61 56 53 47 47 50 52 51 47 47 53 60 62 69 73 68 68 69 69 70 70 71 73 75 77 76 75 75 76 77 77 78 77 78 78 78 77 78 78 79 79 80 80 80 80 80 79 78 79 78 76 75 74
62 65 65 67 67 69 64 67 70 67 65 67 64 57 50 55 48 51 50 49 42 51 56 58 62 60 63 66 68 69 69 71 73 74 74 73 72 73 76 77 78 77 77 77 76 76 76 77 77 78 79 79 80 80 80 80 79 79 79 79 77 75 74
53 63 61 62 63 67 61 61 62 68 70 70 59 53 49 58 51 54 49 47 47 57 56 56 58 61 65 67 69 70 70 70 72 73 72 72 72 72 73 74 75 75 75 75 75 76 76 76 77 78 78 79 79 79 80 80 80 80 80 79 77 76 75
43 42 46 51 56 57 55 56 62 64 66 63 59 56 53 49 47 50 48 44 46 54 56 62 61 60 62 64 67 70 70 71 71 71 71 70 70 71 72 73 73 73 74 74 75 75 76 76 77 77 77 79 79 80 80 81 81 80 80 80 78 76 76
53 54 49 49 53 53 60 59 65 62 65 67 67 52 50 54 41 51 41 52 56 61 66 64 63 60 65 66 65 68 69 69 69 68 69 70 70 71 72 72 73 72 72 73 74 75 76 77 77 78 78 78 79 78 79 81 81 80 79 79 77 76 76
62 63 59 58 61 61 60 61 62 64 65 63 62 57 58 50 50 44 44 42 61 62 65 66 63 61 61 63 65 68 69 69 70 71 69 71 69 70 70 71 71 71 72 72 73 74 75 76 77 77 78 79 78 78 79 80 80 80 79 78 77 76 75
64 67 66 61 60 62 60 61 64 63 63 61 63 60 58 55 61 57 51 46 58 63 68 70 68 66 66 67 68 71 72 70 68 67 68 69 70 70 70 70 71 71 71 71 72 73 74 75 75 76 77 77 77 78 79 79 80 80 79 78 76 76 75
64 64 65 63 64 62 61 62 62 62 62 62 66 66 61 62 58 63 59 51 61 68 70 71 71 69 71 69 67 66 68 70 69 69 69 71 71 71 71 71 71 71 72 72 72 72 73 74 75 76 76 76 77 77 78 79 78 79 78 77 76 75 74
60 63 64 62 62 64 65 64 63 62 62 62 63 64 61 60 62 62 58 54 58 66 67 72 69 64 63 64 68 71 71 69 69 70 70 71 71 71 71 71 71 71 71 71 70 71 72 73 74 75 75 76 76 78 78 79 78 79 79 77 76 75 74
53 60 61 61 60 61 62 65 65 62 59 57 59 60 58 57 58 55 52 52 57 66 61 63 63 62 66 67 66 67 66 68 69 70 71 71 71 71 71 71 71 70 70 69 70 71 72 73 73 74 74 75 76 76 77 78 79 79 77 77 76 74 74
47 55 61 62 58 57 53 57 62 64 61 62 61 62 59 62 62 54 55 57 67 70 63 66 62 64 66 67 67 67 67 68 70 71 72 72 71 70 70 70 70 71 71 71 71 72 72 73 73 75 75 75 75 76 76 76 77 77 76 76 75 74 73
50 58 57 56 52 45 46 51 62 67 65 64 64 60 60 58 59 57 61 65 59 57 63 67 65 61 65 70 69 70 70 68 68 70 69 70 70 70 69 70 70 70 70 70 71 72 73 74 76 76 76 76 76 76 77 76 76 75 75 75 74 73 72
53 50 54 50 46 45 49 57 60 62 70 71 64 57 58 57 56 56 60 61 60 60 63 66 66 64 61 60 65 71 66 68 68 68 68 67 68 68 67 67 68 69 70 70 70 71 72 74 74 74 74 76 75 75 75 74 74 74 74 73 71 71 70
45 47 48 45 39 48 60 63 62 64 66 64 64 58 58 57 58 56 54 57 58 57 58 58 59 61 64 66 65 61 63 66 69 68 68 68 68 68 68 69 68 69 70 72 72 72 74 73 73 75 75 75 76 75 74 74 73 73 72 71 71 70 70
48 42 50 46 55 58 60 57 59 59 58 56 60 54 58 59 58 57 55 56 57 58 59 60 63 64 66 65 64 67 66 63 67 71 70 69 70 70 70 72 72 72 72 73 73 72 71 72 73 74 74 75 75 73 73 72 72 72 71 71 70 70 70
42 43 41 48 48 44 50 55 62 64 66 63 59 55 56 59 61 59 56 57 57 58 60 63 65 67 67 60 60 67 68 66 66 67 69 71 70 69 69 67 68 68 69 70 71 72 70 70 72 72 74 74 73 72 71 70 71 70 71 70 70 70 70
44 46 43 38 40 45 48 54 60 65 65 64 61 55 54 58 60 61 58 59 59 60 62 63 65 67 57 58 59 66 65 67 69 69 68 69 68 67 68 69 68 67 67 68 70 70 69 71 70 72 73 73 72 71 70 70 70 70 69 69 69 69 69
42 40 37 42 43 51 57 59 62 65 65 62 60 52 48 55 61 60 60 60 61 63 63 66 65 64 60 59 65 68 68 68 68 69 70 69 69 67 67 66 66 67 69 71 69 69 70 70 70 70 72 72 71 70 68 69 69 68 67 67 68 69 69
45 46 42 45 50 55 57 60 63 63 64 61 54 42 52 59 59 60 62 63 64 66 67 69 65 61 64 64 66 67 71 72 70 68 68 67 68 68 68 68 70 69 69 69 68 68 67 67 67 69 70 69 67 67 67 67 66 66 66 67 67 68 68
44 41 41 45 44 53 60 63 62 62 59 47 45 55 60 58 59 61 63 64 64 65 65 65 64 64 67 68 68 68 69 68 67 68 69 70 70 70 69 68 68 67 67 65 65 66 66 67 68 69 69 67 65 66 66 65 65 66 66 66 67 67 67
45 41 40 38 41 54 63 60 58 59 53 52 56 60 61 62 62 63 62 63 63 64 62 63 63 65 66 66 67 67 67 67 66 65 65 65 65 66 66 66 67 67 65 64 64 65 66 67 68 68 68 66 65 65 64 64 66 66 66 67 67 67 67
43 40 39 40 51 56 63 58 54 56 59 62 61 61 59 61 62 63 62 61 62 64 63 63 64 64 65 65 66 67 67 67 68 67 66 65 65 66 67 67 66 65 64 64 64 65 65 66 67 68 68 65 65 64 63 65 66 67 67 67 67 66 66
48 47 47 53 56 57 62 61 60 61 62 63 61 62 61 61 61 61 62 60 61 63 64 63 63 63 63 63 64 64 64 65 65 65 64 64 65 66 66 66 66 64 63 63 64 64 65 65 67 67 67 66 65 63 64 66 66 66 66 66 66 66 66
58 60 57 57 58 58 61 63 63 64 63 62 63 63 60 59 60 62 62 61 62 63 64 64 61 61 62 64 64 65 65 65 65 65 66 65 65 65 65 65 65 64 64 64 64 64 64 65 66 67 67 67 65 64 66 67 67 66 66 66 65 65 66
49 44 55 55 56 59 59 61 63 63 63 62 61 61 60 60 61 61 61 61 61 62 63 62 60 60 62 62 62 62 62 63 62 63 63 62 62 63 64 65 66 64 64 65 64 64 64 64 66 67 67 67 67 66 66 67 67 66 66 66 65 65 65
51 50 54 57 59 59 61 59 59 59 60 61 61 61 61 62 62 63 62 62 61 62 60 61 61 60 61 60 60 62 61 61 61 62 63 62 62 62 62 64 64 63 64 64 64 64 63 64 65 65 66 65 66 66 68 68 68 67 66 66 65 65 65
53 56 57 57 58 59 60 62 61 60 60 61 62 62 63 64 63 63 63 64 63 62 61 61 62 61 60 61 61 63 62 62 62 62 62 62 61 61 62 63 64 64 64 65 64 64 63 63 64 64 64 66 67 67 68 68 67 66 66 66 65 65 65
48 48 52 58 55 50 54 58 59 61 63 63 62 62 63 63 62 62 61 61 63 63 62 62 62 60 60 60 61 62 61 61 61 62 62 62 62 62 62 63 63 64 65 64 63 62 62 63 64 64 64 66 67 69 68 68 67 66 65 64 63 63 64
49 55 58 55 57 55 56 57 59 59 62 62 62 61 61 62 62 64 64 62 61 61 60 61 61 60 60 59 60 61 60 61 61 61 61 62 62 62 62 62 62 62 63 64 63 63 62 63 64 65 65 66 67 68 68 68 68 66 64 63 62 62 62
56 58 58 59 57 56 57 59 60 61 61 61 62 62 62 62 62 63 62 62 61 60 61 61 61 60 60 60 60 60 60 61 61 62 62 62 62 63 63 62 62 62 63 63 63 62 62 63 64 64 65 66 66 68 67 67 67 65 65 63 61 61 62
55 57 59 59 58 57 58 59 60 61 63 64 62 62 62 62 63 63 61 60 61 62 61 60 61 60 60 60 59 59 60 61 61 62 63 63 63 62 62 62 61 62 63 63 62 62 62 63 63 64 65 65 65 66 66 66 66 65 65 65 65 65 64
MSLP
1003.82 1003.70 1003.26 1004.10 1003.38 1009.54 1007.82 1008.18 1009.58 1007.90 1006.46 1007.30 1011.58 1013.58 1013.78 1013.50 1013.90 1013.82 1013.38 1012.34 1010.86 1008.54 1006.66 1004.78 1005.58 1005.54 1005.38 1005.34 1005.30 1005.42 1005.38 1005.82 1005.90 1006.34 1006.42 1006.62 1006.74 1006.90 1007.18 1007.42 1007.62 1007.90 1008.18 1008.38 1008.54 1008.82 1009.14 1009.42 1009.82 1009.94 1009.90 1009.86 1009.94 1010.10 1010.38 1010.62 1010.74 1010.98 1011.34 1011.58 1011.82 1012.06 1012.38
1003.70 1002.46 1002.38 1002.98 1002.74 1003.46 1007.18 1009.02 1007.82 1007.38 1006.94 1006.74 1009.22 1012.94 1014.26 1013.74 1015.14 1013.46 1014.22 1012.26 1011.74 1011.42 1012.10 1005.66 1005.82 1005.78 1004.94 1005.02 1005.02 1005.18 1005.14 1005.98 1006.06 1005.78 1005.94 1006.02 1006.18 1006.18 1006.14 1006.42 1006.66 1006.90 1007.18 1007.54 1007.78 1007.98 1008.26 1008.58 1008.78 1009.02 1009.18 1009.18 1009.34 1009.66 1009.90 1010.18 1010.50 1010.86 1010.86 1011.10 1011.38 1011.62 1012.06
1003.10 1002.86 1003.34 1004.50 1003.46 1002.70 1004.30 1005.38 1004.42 1006.82 1011.70 1011.50 1010.74 1010.70 1015.38 1015.50 1015.66 1013.78 1013.50 1012.98 1011.78 1011.06 1009.46 1006.58 1006.18 1006.06 1004.82 1004.38 1005.18 1005.94 1005.94 1005.82 1005.22 1005.02 1005.14 1005.14 1005.30 1005.98 1006.46 1006.58 1006.74 1006.98 1007.22 1007.46 1007.62 1007.78 1007.82 1007.94 1008.06 1008.26 1008.42 1008.86 1009.26 1009.54 1009.58 1009.86 1010.18 1010.18 1010.46 1010.86 1011.22 1011.50 1011.74
1003.10 1003.58 1004.54 1008.14 1005.70 1003.94 1004.18 1003.94 1005.94 1005.26 1006.06 1008.90 1010.70 1009.82 1010.54 1011.02 1014.22 1014.50 1013.26 1013.70 1012.22 1009.58 1007.70 1005.22 1004.66 1004.10 1004.22 1004.06 1005.46 1005.14 1004.86 1004.58 1004.26 1004.34 1004.70 1005.06 1005.46 1005.54 1005.66 1005.98 1006.10 1006.26 1006.42 1006.62 1006.86 1007.10 1007.46 1007.70 1007.90 1007.94 1008.18 1008.58 1009.06 1009.14 1009.42 1009.62 1009.74 1010.14 1010.58 1010.86 1010.98 1011.26 1011.38
1004.42 1006.22 1004.82 1005.26 1005.06 1006.82 1006.66 1006.26 1007.38 1006.90 1006.54 1006.90 1006.66 1009.06 1009.22 1010.14 1012.26 1013.06 1012.34 1014.10 1011.10 1007.10 1005.26 1004.46 1003.50 1002.82 1003.34 1003.90 1003.90 1003.90 1004.26 1003.90 1003.66 1003.90 1004.34 1004.70 1004.78 1004.90 1005.14 1005.22 1005.54 1005.82 1006.06 1006.22 1006.38 1006.50 1006.62 1006.74 1006.98 1007.34 1007.86 1008.26 1008.26 1008.54 1009.02 1009.18 1009.66 1009.86 1010.10 1010.26 1010.58 1010.74 1010.98
1006.34 1004.74 1002.78 1002.54 1003.02 1004.06 1005.02 1005.90 1007.06 1006.54 1007.62 1008.82 1010.54 1010.94 1009.82 1009.82 1009.54 1012.62 1011.94 1012.22 1008.38 1004.22 1003.70 1003.94 1002.78 1001.70 1002.10 1003.18 1002.90 1002.94 1003.34 1003.50 1003.62 1003.62 1003.66 1003.74 1004.26 1004.38 1004.46 1004.58 1004.90 1005.30 1005.58 1005.78 1005.90 1006.18 1006.46 1006.94 1007.22 1007.50 1007.50 1007.78 1008.10 1008.42 1008.46 1008.70 1009.02 1009.34 1009.58 1009.90 1009.98 1010.10 1010.42
1005.14 1003.54 1001.70 1002.18 1001.74 1002.10 1003.06 1003.90 1005.66 1004.82 1005.34 1006.18 1008.34 1011.66 1010.34 1010.22 1009.74 1009.90 1009.58 1009.70 1007.82 1002.54 1002.90 1002.42 1002.10 1002.06 1002.54 1002.94 1003.50 1003.34 1003.30 1003.22 1003.06 1002.98 1002.82 1003.02 1003.26 1003.66 1003.90 1004.22 1004.50 1004.74 1005.02 1005.22 1005.54 1005.86 1006.18 1006.42 1006.54 1006.70 1007.02 1007.22 1007.38 1007.58 1007.78 1008.02 1008.38 1008.54 1008.58 1008.82 1009.18 1009.70 1010.14
1003.26 1002.90 1002.54 1002.66 1002.26 1002.58 1004.02 1003.58 1003.06 1004.50 1005.78 1005.10 1006.14 1006.74 1006.98 1008.34 1009.46 1010.38 1010.46 1010.54 1007.38 1002.14 1003.94 1004.22 1003.30 1003.06 1002.94 1003.38 1003.34 1003.26 1003.54 1003.14 1002.74 1002.66 1002.90 1003.22 1003.58 1003.62 1003.70 1003.90 1004.10 1004.42 1004.74 1005.06 1005.58 1006.02 1006.18 1006.26 1006.38 1006.50 1006.50 1006.62 1006.82 1007.02 1007.18 1007.42 1007.82 1007.90 1008.18 1008.54 1008.94 1009.38 1009.78
1005.86 1004.50 1003.62 1003.38 1003.18 1002.98 1003.58 1003.98 1003.70 1003.22 1003.10 1003.74 1004.74 1005.22 1007.58 1007.42 1008.34 1007.46 1009.26 1011.26 1007.94 1002.82 1004.22 1004.34 1004.26 1003.74 1003.50 1003.46 1003.10 1002.86 1003.02 1002.94 1002.62 1002.54 1002.70 1002.90 1003.18 1003.58 1003.82 1003.98 1004.14 1004.50 1004.94 1005.26 1005.30 1005.26 1005.50 1005.70 1005.82 1005.98 1006.18 1006.30 1006.42 1006.58 1006.82 1007.18 1007.30 1007.42 1007.86 1008.18 1008.74 1009.10 1009.42
1009.82 1009.90 1008.78 1007.54 1006.14 1005.18 1003.58 1002.94 1002.90 1003.30 1003.82 1004.82 1006.18 1007.74 1007.86 1008.66 1007.86 1008.54 1007.94 1008.06 1004.90 1002.78 1003.26 1003.66 1003.98 1003.82 1003.82 1003.82 1003.62 1003.14 1002.22 1002.06 1002.34 1002.46 1002.66 1002.98 1003.38 1003.46 1003.46 1003.78 1004.18 1004.46 1004.46 1004.58 1004.86 1005.10 1005.22 1005.34 1005.46 1005.58 1005.74 1005.86 1006.06 1006.34 1006.58 1006.62 1006.98 1007.38 1007.70 1007.94 1008.34 1008.82 1009.18
1006.34 1005.30 1004.30 1003.30 1003.22 1003.34 1004.34 1003.42 1002.78 1003.58 1003.42 1003.38 1003.70 1004.98 1006.78 1007.82 1008.06 1008.26 1005.98 1004.70 1004.58 1003.86 1002.50 1002.42 1002.98 1003.90 1002.66 1002.30 1002.98 1002.82 1002.34 1001.98 1001.98 1002.30 1002.58 1002.82 1002.94 1003.10 1003.26 1003.38 1003.50 1003.94 1004.54 1004.58 1004.50 1004.66 1004.78 1004.86 1005.06 1005.22 1005.42 1005.70 1005.90 1006.14 1006.30 1006.38 1006.58 1007.06 1007.46 1007.86 1008.18 1008.54 1008.82
1002.22 1002.06 1002.46 1002.14 1002.66 1002.50 1002.46 1002.66 1002.90 1002.34 1003.02 1003.70 1004.46 1005.70 1005.82 1005.02 1007.02 1008.90 1005.46 1005.14 1004.30 1003.70 1002.02 1001.62 1001.78 1003.06 1003.54 1003.06 1002.58 1002.50 1002.14 1001.90 1001.74 1001.58 1002.10 1002.66 1003.10 1003.22 1003.42 1003.62 1003.82 1003.90 1003.90 1004.14 1004.42 1004.50 1004.66 1004.78 1004.86 1005.06 1005.14 1005.30 1005.54 1005.78 1006.02 1006.18 1006.50 1006.90 1007.18 1007.46 1007.70 1008.02 1008.34
1001.34 1000.86 1001.30 1001.86 1002.14 1001.70 1001.46 1001.70 1001.66 1002.42 1002.62 1003.38 1004.30 1004.30 1003.70 1004.58 1004.98 1006.18 1003.98 1005.06 1004.38 1002.54 1001.58 1000.54 1000.38 1000.70 1000.74 1001.14 1001.06 1001.14 1001.14 1001.38 1001.78 1002.18 1002.54 1002.62 1002.62 1002.94 1003.22 1003.26 1003.42 1003.62 1003.86 1003.86 1004.02 1004.26 1004.30 1004.50 1004.82 1004.90 1005.06 1005.22 1005.38 1005.58 1005.70 1005.98 1006.18 1006.30 1006.38 1006.74 1007.10 1007.46 1007.82
1001.46 1001.22 1001.18 1001.90 1002.06 1001.70 1001.50 1001.50 1001.74 1001.86 1002.86 1003.14 1002.54 1002.58 1003.22 1003.34 1002.86 1002.10 1002.30 1003.58 1002.66 1001.22 1000.34 1000.34 999.66 1000.22 1000.14 1000.50 1000.98 1001.50 1001.78 1001.50 1001.50 1001.82 1002.10 1002.18 1002.38 1002.46 1002.66 1002.94 1003.02 1003.06 1003.14 1003.46 1003.74 1003.94 1004.26 1004.42 1004.50 1004.70 1004.94 1005.10 1005.18 1005.38 1005.58 1005.78 1005.98 1005.94 1006.10 1006.34 1006.70 1007.18 1007.54
1002.10 1001.14 1001.06 1001.66 1001.98 1001.90 1002.18 1001.46 1001.06 1000.94 1001.70 1002.62 1003.06 1002.70 1003.02 1003.30 1002.62 1001.94 1002.74 1003.50 1002.90 1000.98 999.34 998.82 999.54 1000.62 1001.14 1000.98 1000.94 1000.86 1000.74 1001.18 1001.66 1001.62 1001.66 1001.78 1001.78 1001.86 1002.18 1002.50 1002.70 1002.78 1003.06 1003.38 1003.70 1003.98 1004.06 1004.10 1004.14 1004.34 1004.54 1004.70 1004.98 1005.22 1005.38 1005.54 1005.62 1005.54 1005.74 1006.34 1006.86 1007.14 1007.42
1002.90 1000.98 1001.46 1001.46 1002.10 1002.34 1002.38 1001.74 1001.46 1001.78 1002.42 1003.06 1002.62 1003.26 1002.62 1003.82 1003.34 1002.70 1004.06 1004.82 1003.62 1000.38 999.78 1000.06 1000.10 1000.34 1000.78 1000.66 1000.70 1001.02 1001.14 1001.10 1001.26 1001.30 1001.14 1001.14 1001.22 1001.58 1001.86 1002.02 1002.34 1002.74 1002.94 1003.18 1003.30 1003.34 1003.42 1003.62 1003.86 1004.10 1004.34 1004.50 1004.78 1004.98 1005.06 1005.26 1005.34 1005.50 1005.94 1006.26 1006.50 1006.74 1006.98
1002.74 1000.50 1000.26 1000.94 1002.06 1003.34 1004.30 1003.42 1001.78 1001.14 1001.18 1000.78 1000.54 1001.02 1001.50 1001.34 1001.78 1004.02 1004.14 1003.26 1000.42 998.90 999.78 1000.14 1000.30 1000.22 1000.10 1000.38 1000.54 1000.58 1000.66 1000.62 1000.38 1000.30 1000.18 1000.18 1000.66 1001.10 1001.42 1001.78 1001.98 1002.10 1002.34 1002.46 1002.58 1002.86 1003.22 1003.42 1003.62 1003.66 1003.90 1004.38 1004.50 1004.46 1004.78 1004.86 1005.06 1005.42 1005.70 1005.90 1006.30 1006.86 1007.22
1002.10 1000.74 1001.10 1001.62 1003.46 1006.10 1004.82 999.50 998.50 999.22 1000.62 1000.82 1001.50 1001.38 1000.98 1001.90 1001.78 1001.10 1001.02 1000.70 1000.30 999.90 999.82 999.54 999.58 1000.22 999.82 999.14 998.98 999.26 999.62 999.98 1000.22 1000.02 1000.06 1000.26 1000.46 1000.78 1001.10 1001.34 1001.66 1001.86 1002.14 1002.34 1002.50 1002.58 1002.70 1002.82 1002.86 1003.10 1003.30 1003.54 1003.62 1003.86 1004.30 1004.62 1004.90 1005.18 1005.54 1005.90 1006.30 1006.74 1007.10
1001.70 1001.78 1002.14 1003.46 1005.38 1004.46 1000.10 999.78 999.98 999.18 998.18 998.42 1000.10 1002.10 1002.62 1002.66 1002.54 1002.14 1001.58 1000.22 1000.06 999.54 998.78 998.14 998.38 999.62 1000.14 999.86 999.62 999.34 999.22 999.54 1000.30 1000.02 999.82 1000.06 1000.34 1000.66 1000.98 1001.38 1001.50 1001.66 1001.82 1002.10 1002.22 1002.38 1002.34 1002.30 1002.54 1002.86 1003.06 1003.02 1003.34 1003.78 1004.02 1004.46 1004.62 1005.02 1005.34 1005.74 1006.18 1006.54 1006.90
1002.86 1003.50 1002.70 1005.38 1004.02 1000.78 1000.22 999.74 999.38 999.34 999.42 1000.34 1000.26 1002.14 1002.22 1002.86 1003.06 1003.26 1001.86 1000.54 1000.54 1000.50 999.86 999.82 999.82 999.78 999.82 999.58 1000.06 1000.26 1000.14 999.54 999.22 1000.22 1000.26 999.94 1000.02 1000.26 1000.50 1000.74 1001.26 1001.42 1001.42 1001.30 1001.46 1001.46 1001.54 1002.06 1002.30 1002.34 1002.54 1002.74 1003.14 1003.54 1003.74 1004.14 1004.58 1004.82 1005.18 1005.62 1006.06 1006.38 1006.66
1002.78 1002.78 1002.18 1002.34 1001.18 1001.30 1000.58 1000.34 1000.58 1000.70 1000.66 1000.26 999.98 1002.34 1002.98 1002.50 1002.66 1002.70 1002.10 1001.02 1000.90 1000.86 1000.66 999.86 999.58 999.50 999.22 999.82 1000.06 999.66 1000.18 1000.06 999.54 999.06 999.54 999.74 999.62 999.74 1000.10 1000.06 1000.10 1000.22 1000.46 1000.78 1000.94 1001.34 1001.70 1001.82 1002.02 1002.22 1002.42 1002.62 1002.98 1003.46 1003.94 1004.18 1004.46 1004.78 1005.02 1005.42 1005.74 1005.98 1006.18
1002.42 1002.54 1003.86 1003.66 1003.22 1004.58 1002.62 1000.38 999.78 999.62 999.98 1000.46 1000.78 1000.22 1002.90 1001.66 1001.66 1001.82 1001.86 1001.02 1001.02 1000.98 1001.14 1000.06 999.38 998.46 999.42 1001.14 1001.14 1000.10 1000.06 999.94 999.54 999.38 999.46 999.62 999.66 999.90 1000.22 1000.54 1000.58 1000.78 1000.98 1001.22 1001.46 1001.62 1001.70 1001.74 1001.82 1002.02 1002.18 1002.46 1002.86 1003.38 1003.78 1004.02 1004.26 1004.54 1004.70 1004.86 1005.14 1005.50 1005.86
1003.30 1001.94 1002.66 1003.38 1003.58 1002.86 1000.54 1000.46 1000.02 1000.02 1000.10 1000.18 1001.10 1000.54 1002.42 1001.86 1001.86 1001.62 1001.74 1001.14 1001.06 1000.86 1001.14 1000.58 999.10 998.82 1001.78 1003.06 1002.06 1000.54 1000.46 999.98 999.50 999.46 999.34 999.26 999.74 999.98 1000.14 1000.14 1000.14 1000.82 1001.18 1001.30 1001.54 1001.62 1001.66 1001.62 1001.74 1001.90 1002.06 1002.34 1002.82 1003.30 1003.62 1003.86 1004.02 1004.34 1004.66 1005.10 1005.46 1005.70 1005.86
1002.82 1001.62 1002.22 1003.22 1003.02 1002.34 1000.98 1000.42 1000.14 999.78 999.94 1000.10 1000.74 1002.62 1004.26 1002.06 1001.90 1001.74 1001.26 1001.34 1001.18 1000.18 1000.22 999.86 1000.38 1000.78 1002.58 1003.02 1001.82 1000.62 1000.54 1000.30 999.66 998.98 998.86 999.14 999.26 999.78 1000.10 1000.46 1000.62 1000.94 1001.14 1001.22 1001.26 1001.30 1001.50 1001.94 1002.22 1002.18 1002.14 1002.38 1002.94 1003.50 1003.94 1004.14 1004.46 1004.66 1004.86 1004.98 1005.10 1005.30 1005.66
1003.82 1002.38 1003.14 1003.42 1002.34 1000.62 1000.46 1000.58 1000.38 999.82 999.54 999.90 1001.98 1003.54 1003.58 1002.46 1002.30 1001.82 1001.46 1001.26 1000.74 1000.18 999.66 999.22 1001.10 1001.82 1001.46 1001.58 1001.34 1000.74 1000.18 999.42 999.74 999.98 1000.06 1000.18 999.94 999.82 1000.02 1000.74 1000.86 1000.98 1001.14 1001.34 1001.78 1002.14 1002.30 1002.34 1002.46 1002.74 1002.98 1003.30 1003.62 1003.86 1004.18 1004.42 1004.66 1004.82 1004.94 1004.98 1005.14 1005.42 1005.82
1003.50 1003.42 1002.34 1003.02 1002.78 1001.14 1001.10 1000.10 1000.46 999.62 999.70 1001.74 1004.02 1003.82 1002.58 1002.54 1002.50 1002.14 1001.94 1001.86 1001.38 1000.66 1000.94 1001.22 1001.58 1001.90 1001.50 1001.38 1001.18 1000.86 1000.62 1000.78 1000.82 1000.54 1000.50 1000.38 1000.62 1001.02 1001.14 1001.30 1001.38 1001.54 1001.58 1001.86 1002.26 1002.66 1002.82 1002.66 1002.58 1002.70 1002.90 1003.42 1003.78 1003.90 1004.14 1004.46 1004.66 1004.82 1004.94 1005.14 1005.30 1005.58 1006.02
1004.42 1004.34 1002.66 1003.10 1004.06 1000.98 1000.34 1001.14 999.26 999.26 1000.30 1003.50 1002.78 1002.90 1002.74 1002.26 1002.38 1002.26 1002.34 1002.02 1001.90 1001.34 1002.10 1002.22 1002.38 1002.18 1001.98 1001.94 1001.86 1001.74 1001.34 1000.98 1001.30 1001.46 1001.38 1001.58 1001.98 1002.30 1001.98 1002.02 1002.14 1002.02 1002.34 1002.70 1002.90 1002.98 1002.90 1002.78 1002.70 1002.74 1002.98 1003.54 1003.94 1004.10 1004.26 1004.66 1004.66 1004.74 1005.02 1005.22 1005.46 1005.74 1006.10
1005.50 1004.06 1004.86 1005.14 1003.86 1002.94 1001.30 1000.66 1000.98 1002.30 1001.46 1001.66 1002.02 1002.50 1003.18 1002.54 1002.14 1002.22 1002.38 1002.38 1002.10 1001.98 1002.02 1002.22 1002.26 1002.22 1002.10 1002.18 1002.26 1002.14 1002.06 1001.82 1001.54 1001.54 1001.70 1001.86 1002.02 1002.18 1002.54 1002.70 1002.78 1002.70 1002.86 1003.06 1003.14 1003.22 1003.22 1003.10 1002.94 1002.90 1003.06 1003.78 1004.10 1004.26 1004.66 1004.62 1004.66 1004.86 1005.14 1005.38 1005.66 1005.98 1006.30
1005.58 1005.18 1004.74 1003.82 1002.94 1002.58 1001.82 1001.66 1001.54 1001.34 1001.62 1001.86 1002.22 1002.22 1002.42 1002.58 1002.70 1002.34 1002.50 1002.70 1002.42 1002.22 1002.18 1002.34 1002.34 1002.58 1003.06 1003.26 1003.10 1003.10 1003.30 1002.98 1002.78 1002.70 1002.66 1002.42 1002.30 1002.18 1002.14 1002.54 1002.70 1002.86 1003.18 1003.46 1003.42 1003.50 1003.54 1003.46 1003.42 1003.50 1003.50 1003.74 1004.14 1004.38 1004.74 1004.62 1004.74 1005.06 1005.30 1005.54 1005.86 1006.18 1006.42
1003.86 1003.38 1003.86 1003.38 1002.86 1002.26 1002.26 1002.14 1002.06 1001.98 1002.30 1002.58 1002.62 1002.66 1002.90 1003.02 1002.78 1002.34 1002.38 1002.58 1002.42 1002.34 1001.94 1002.18 1002.98 1003.18 1003.06 1002.90 1003.10 1003.06 1003.02 1002.94 1002.82 1002.62 1002.70 1002.90 1002.54 1002.42 1002.38 1002.50 1002.82 1002.98 1003.14 1003.30 1003.50 1003.78 1003.94 1004.06 1004.02 1003.98 1003.90 1003.78 1004.06 1004.66 1004.58 1004.62 1004.82 1005.02 1005.30 1005.66 1005.98 1006.22 1006.38
1003.82 1006.22 1003.82 1004.10 1003.86 1003.18 1002.94 1003.30 1003.22 1003.10 1002.94 1002.90 1002.74 1002.82 1002.86 1003.06 1002.86 1002.78 1002.70 1002.58 1002.66 1002.54 1002.22 1002.42 1003.02 1003.26 1002.98 1002.66 1002.94 1002.94 1003.06 1003.38 1003.50 1003.26 1003.06 1003.18 1003.02 1002.74 1002.74 1003.06 1003.02 1003.14 1003.18 1003.58 1003.90 1004.06 1004.30 1004.34 1004.26 1004.18 1004.14 1004.26 1004.34 1004.62 1004.70 1004.70 1004.86 1005.06 1005.30 1005.62 1005.98 1006.22 1006.42
1002.90 1004.26 1004.74 1004.34 1003.94 1003.82 1003.50 1003.66 1003.94 1004.14 1003.98 1003.70 1003.14 1002.94 1002.78 1002.74 1002.94 1002.74 1002.82 1002.70 1003.02 1003.02 1003.22 1003.14 1003.10 1003.78 1003.82 1003.38 1003.30 1003.38 1003.58 1003.82 1003.90 1003.74 1003.62 1003.70 1003.50 1003.42 1003.34 1003.10 1003.14 1003.42 1003.34 1003.42 1003.54 1003.54 1003.58 1003.98 1004.06 1004.34 1004.54 1004.42 1004.46 1004.66 1004.78 1004.78 1004.94 1005.22 1005.50 1005.74 1005.94 1006.18 1006.34
1004.26 1003.82 1004.30 1004.22 1003.94 1004.10 1004.14 1003.82 1003.62 1003.58 1003.66 1003.62 1003.42 1003.22 1003.14 1002.58 1002.78 1003.34 1003.22 1002.86 1003.18 1003.14 1003.50 1003.62 1003.62 1003.86 1004.38 1004.42 1004.34 1004.30 1004.34 1004.22 1003.98 1003.94 1003.82 1003.62 1003.98 1004.14 1004.10 1003.86 1003.26 1002.78 1003.14 1003.22 1003.14 1002.86 1003.18 1003.70 1003.94 1004.22 1004.50 1004.66 1004.70 1004.62 1004.66 1004.74 1004.90 1005.22 1005.54 1005.74 1005.94 1006.18 1006.34
1004.70 1004.30 1004.18 1002.82 1003.62 1005.58 1004.90 1004.10 1003.74 1003.42 1003.18 1003.14 1003.38 1003.38 1003.34 1003.26 1003.42 1003.94 1003.94 1003.82 1003.86 1003.58 1003.18 1003.18 1003.26 1003.66 1004.06 1003.90 1003.62 1003.78 1003.94 1004.10 1004.18 1004.02 1003.86 1003.86 1003.82 1003.70 1003.70 1003.78 1004.14 1003.82 1003.02 1003.06 1003.14 1003.26 1003.54 1003.94 1004.30 1004.30 1004.50 1004.54 1004.46 1004.34 1004.30 1004.42 1004.58 1004.98 1005.34 1005.74 1006.06 1006.26 1006.38
1003.74 1003.10 1002.78 1002.90 1002.86 1003.86 1004.26 1003.98 1003.74 1003.58 1003.22 1003.18 1003.46 1003.78 1003.98 1004.10 1003.82 1003.30 1003.10 1003.70 1004.14 1004.02 1004.06 1004.02 1003.94 1003.94 1004.10 1004.50 1004.38 1004.42 1004.54 1004.66 1004.58 1004.50 1004.30 1004.06 1003.74 1003.70 1003.70 1003.78 1003.90 1003.90 1003.78 1003.78 1003.74 1003.50 1003.62 1003.82 1004.18 1004.38 1004.46 1004.38 1004.30 1004.18 1004.10 1004.14 1004.34 1004.78 1005.26 1005.78 1006.06 1006.18 1006.34
1002.66 1002.58 1002.98 1002.94 1003.10 1003.82 1004.10 1003.82 1003.46 1003.38 1003.22 1003.38 1003.98 1004.22 1004.10 1004.02 1003.82 1003.66 1003.62 1003.78 1003.66 1003.78 1003.82 1003.98 1003.90 1003.86 1003.94 1004.18 1004.10 1004.34 1004.54 1004.62 1004.62 1004.58 1004.50 1004.22 1003.94 1003.62 1003.70 1003.94 1004.22 1004.38 1004.26 1004.06 1004.06 1004.22 1004.26 1004.22 1004.30 1004.30 1004.34 1004.30 1004.26 1004.30 1004.34 1004.34 1004.42 1004.74 1005.06 1005.42 1005.86 1006.02 1006.02
1002.74 1003.06 1003.18 1003.38 1003.54 1003.98 1004.14 1004.06 1003.70 1003.46 1003.26 1003.22 1003.78 1003.98 1003.74 1003.38 1003.34 1003.42 1003.62 1003.70 1003.66 1003.74 1003.98 1004.18 1004.30 1004.26 1004.34 1004.54 1004.66 1004.78 1004.86 1004.94 1004.90 1004.86 1004.70 1004.46 1004.06 1003.82 1003.78 1004.06 1004.34 1004.26 1004.02 1003.86 1003.86 1003.90 1003.98 1004.10 1004.26 1004.34 1004.42 1004.58 1004.66 1004.66 1004.70 1004.70 1004.70 1004.86 1005.06 1005.18 1005.46 1005.82 1006.06
Wind_Speed
5 6 5 4 9 9 3 5 8 6 8 8 2 2 1 3 2 5 3 3 5 8 8 6 1 3 7 5 10 11 12 9 11 12 13 14 15 15 15 16 16 16 15 15 15 15 14 14 13 15 16 16 18 17 15 16 16 13 13 13 13 11 11
7 5 6 6 7 8 6 5 8 2 3 4 6 7 1 1 6 5 2 7 2 3 5 5 1 5 10 6 10 11 10 7 12 14 13 15 16 17 18 17 17 18 18 19 18 16 17 17 18 18 18 17 16 15 15 16 14 15 14 13 13 12 12
5 2 4 5 5 4 11 7 8 7 3 6 3 3 3 1 3 2 2 3 3 7 6 3 5 8 14 14 6 4 7 11 16 15 15 16 15 13 13 15 15 15 15 15 15 16 17 17 17 17 17 15 12 12 13 13 15 15 12 10 9 8 9
5 4 8 14 11 2 4 6 5 1 6 4 5 7 4 5 5 2 5 1 6 6 7 11 11 12 14 12 5 11 14 17 17 14 13 14 14 15 16 15 16 16 17 18 19 19 18 18 17 17 17 14 16 15 14 13 12 8 8 11 11 11 11
0 8 6 15 14 9 4 4 4 2 0 2 4 1 6 6 6 6 4 3 5 8 9 10 13 12 12 12 13 13 12 15 13 10 12 13 14 15 15 16 15 16 16 17 17 17 17 17 16 14 13 15 17 15 14 14 13 14 13 13 12 12 10
6 8 5 10 12 10 9 10 8 8 6 4 6 9 2 2 3 4 5 8 5 9 4 11 12 12 11 11 14 13 12 11 10 11 13 14 14 13 15 16 15 15 15 16 16 14 13 12 13 15 15 14 15 14 15 15 14 13 15 13 14 13 12
9 10 8 2 4 11 10 11 9 11 6 5 5 8 5 1 1 4 4 2 8 9 7 12 14 8 8 9 8 10 9 11 12 13 15 13 14 15 15 15 14 14 15 16 16 17 17 18 18 18 16 16 16 17 17 15 16 17 16 16 13 11 11
7 6 4 2 2 2 4 7 8 10 11 11 9 6 7 6 1 1 1 2 5 2 1 4 5 5 5 5 8 12 8 8 11 13 11 11 10 11 11 11 12 12 13 13 12 14 15 15 15 16 16 15 15 15 16 15 17 18 15 13 12 12 12
5 10 5 3 1 4 4 5 6 9 11 12 4 4 2 7 8 9 7 9 3 5 1 3 3 5 7 10 12 11 11 9 9 10 10 9 9 8 10 12 12 10 11 13 15 15 15 15 15 15 15 16 16 16 14 15 15 16 14 11 12 13 13
10 10 11 11 9 9 3 1 6 6 9 10 6 6 3 8 3 5 5 4 8 8 4 0 2 4 5 5 5 6 6 8 10 9 9 8 8 11 12 11 10 14 14 14 13 13 13 14 15 15 15 15 15 14 14 14 14 12 13 11 12 12 12
12 11 7 5 4 3 6 4 8 6 7 13 11 6 8 12 5 8 8 8 6 4 5 5 5 5 10 11 7 9 9 8 8 6 6 9 10 12 14 14 13 9 9 14 15 14 14 15 14 14 14 14 13 13 14 14 12 11 11 11 11 13 13
15 13 12 8 8 6 7 9 8 9 10 11 10 9 11 7 11 8 5 5 7 10 8 9 8 8 5 5 7 9 8 7 11 13 9 7 5 6 6 7 10 13 14 12 13 14 13 13 12 12 12 12 13 13 14 12 11 10 10 12 13 13 14
16 15 16 10 5 5 5 7 9 11 11 11 14 12 8 11 10 12 7 8 8 9 11 13 13 13 13 14 16 17 11 5 4 5 7 11 12 10 11 11 10 11 12 13 13 12 13 12 12 13 11 11 10 10 11 10 11 13 13 13 14 14 14
15 14 13 8 12 6 5 5 5 6 8 13 16 15 9 15 8 10 11 13 15 12 11 12 13 13 13 9 3 3 4 10 11 9 10 13 13 14 14 12 12 12 13 11 11 10 9 11 12 11 10 10 11 11 11 10 10 11 11 14 14 14 14
10 12 10 7 11 12 12 9 7 7 8 7 7 5 5 8 9 6 6 11 12 10 7 10 4 1 2 5 10 14 13 8 10 12 14 14 15 14 12 11 11 10 8 7 6 8 9 11 12 11 10 9 8 9 9 10 12 12 12 11 10 11 12
6 6 8 10 7 9 12 15 13 8 5 5 5 5 6 4 8 5 4 5 9 10 5 3 1 4 6 9 9 9 8 9 11 14 16 16 15 13 12 11 9 8 8 9 10 12 12 10 9 9 9 9 8 10 9 10 10 9 9 10 12 12 11
6 6 9 12 6 2 6 12 12 11 8 7 4 2 5 9 4 4 7 11 12 12 5 6 5 7 10 8 7 8 8 9 15 18 19 17 13 11 11 10 11 11 12 11 11 9 6 8 8 9 8 7 10 10 10 8 7 9 11 11 10 8 7
6 8 4 2 5 8 8 7 8 12 12 10 8 5 6 2 5 8 7 6 3 3 7 10 8 8 10 13 9 3 6 12 13 12 8 8 9 8 7 8 8 7 6 6 6 7 7 8 10 8 9 11 10 8 7 7 10 9 10 8 7 8 8
8 1 6 3 9 8 5 3 2 7 13 16 10 7 5 3 3 5 7 8 7 7 7 9 7 3 4 9 4 1 0 3 5 9 10 10 9 9 8 8 8 8 8 6 6 7 9 10 7 7 8 9 7 7 9 10 9 9 9 8 8 9 10
3 2 4 6 6 3 2 3 5 5 10 8 15 5 2 3 2 3 6 8 7 5 8 4 2 6 6 7 6 5 5 2 9 7 7 9 10 11 10 10 8 9 10 12 12 12 8 6 7 9 9 7 8 8 8 9 8 8 8 8 8 9 10
5 4 8 5 1 2 0 2 2 2 3 3 8 9 1 1 3 0 4 7 6 4 3 3 7 6 5 6 5 6 7 5 1 8 7 9 9 9 9 11 12 11 10 10 10 5 5 8 8 7 5 7 7 7 8 7 8 8 9 10 10 11 12
4 5 3 1 2 3 5 2 1 1 0 1 3 5 2 4 9 3 1 2 2 1 3 7 9 7 11 7 7 9 9 4 0 2 6 5 5 3 5 3 3 3 3 2 2 5 5 6 6 5 6 7 7 8 8 9 9 9 10 12 11 11 10
3 2 5 4 5 4 4 3 4 2 1 2 4 4 2 2 7 7 2 1 1 4 3 1 3 9 7 1 4 7 6 3 3 8 8 9 8 6 6 4 5 4 4 5 4 3 3 4 6 6 7 8 8 8 8 9 9 9 7 4 6 8 9
1 6 4 2 2 2 2 4 4 4 4 1 3 5 2 5 9 8 4 2 2 10 8 10 11 9 10 6 3 5 2 3 3 5 9 9 10 9 7 6 5 6 5 5 5 4 2 2 2 3 6 7 5 3 4 5 6 5 5 6 7 7 7
4 3 2 1 1 2 2 4 9 8 2 3 4 7 3 3 6 7 5 5 4 3 10 11 13 4 5 1 3 5 1 11 12 12 11 8 8 8 8 7 6 7 6 7 7 5 4 3 5 4 5 6 6 6 7 6 6 5 7 7 8 8 8
4 2 5 2 2 2 5 11 9 4 3 4 5 2 1 2 5 6 7 9 10 12 14 10 10 5 5 5 4 10 13 11 10 12 11 11 12 10 10 11 10 8 8 9 9 8 5 6 6 6 6 7 7 8 8 7 6 6 8 9 9 9 10
1 3 4 4 2 3 12 21 7 5 7 5 4 4 2 1 6 9 10 10 11 12 14 11 9 9 11 11 12 11 11 13 13 13 14 13 11 10 9 10 7 7 7 6 6 6 5 5 5 5 8 9 7 7 8 7 7 9 9 10 10 11 11
3 3 2 2 4 7 15 6 6 3 7 8 9 6 5 2 5 9 9 10 9 10 12 12 13 13 14 14 13 13 13 12 12 12 11 10 9 9 8 8 8 8 7 6 7 6 5 4 4 6 9 9 8 9 9 7 8 9 9 10 10 11 11
1 1 1 1 1 3 8 10 9 11 8 5 3 5 6 7 7 3 10 8 8 8 12 13 12 13 10 8 7 10 9 11 12 11 9 9 8 8 10 10 8 8 7 7 7 8 7 6 4 5 7 10 10 10 8 8 10 10 10 10 11 11 11
3 7 3 2 4 7 10 10 8 10 9 4 3 6 9 4 4 5 10 7 9 9 9 13 10 9 7 11 10 9 9 9 9 8 11 11 9 9 9 8 7 6 7 7 8 8 8 7 4 3 5 9 11 9 9 8 9 10 11 11 11 11 10
3 2 6 7 5 6 9 7 6 7 4 3 3 5 6 5 6 8 6 8 8 8 10 12 10 8 8 10 8 7 8 9 8 7 6 4 4 6 6 2 4 6 7 7 7 7 7 5 4 4 4 3 7 8 9 8 9 10 10 10 10 10 10
8 8 3 2 4 4 4 4 3 3 3 3 5 5 6 7 5 6 6 6 8 5 9 7 12 9 7 8 7 6 6 5 5 5 6 7 6 3 1 3 6 5 6 8 8 8 6 3 4 4 3 5 7 8 8 8 8 10 10 9 10 9 9
6 11 4 6 9 10 7 4 5 4 3 3 4 4 4 9 13 9 8 9 7 8 7 5 8 11 7 5 3 6 4 4 6 6 6 4 4 4 5 4 2 9 8 8 9 10 8 6 6 7 6 6 7 9 10 11 10 10 9 9 7 9 9
11 9 12 14 14 4 1 3 4 3 3 7 8 6 6 5 10 7 11 11 8 7 9 11 12 12 9 9 10 11 9 8 7 7 6 4 3 5 4 1 5 2 5 7 8 7 8 7 5 7 7 8 8 8 10 11 11 11 10 9 9 9 8
8 4 7 2 7 10 3 4 3 5 4 7 10 8 7 5 3 5 11 12 8 8 8 5 8 10 10 6 5 7 7 6 5 5 5 5 5 5 4 2 4 5 2 2 3 6 6 6 7 7 8 8 9 10 10 11 12 11 11 10 8 9 9
10 8 6 4 5 9 4 2 4 5 4 10 10 4 4 4 6 7 10 6 9 9 9 10 9 9 9 8 8 8 6 6 6 6 6 5 5 5 2 2 3 3 4 5 6 6 4 5 6 7 8 8 8 8 8 9 10 12 12 12 11 10 10
11 4 8 10 12 10 5 4 5 6 5 7 8 7 7 9 11 10 10 9 9 10 10 9 8 7 7 6 6 6 4 3 2 2 3 3 3 2 2 4 5 5 6 6 7 8 8 7 6 7 6 4 3 5 4 5 8 11 10 11 11 10 8
Wind_Direction
179 202 155 201 152 208 217 120 201 211 160 139 76 43 148 105 49 248 192 311 293 302 314 272 302 306 270 250 231 214 222 176 171 189 190 190 195 195 195 197 197 196 194 196 196 196 197 197 196 201 204 203 205 205 204 207 209 201 194 195 192 188 183
245 191 180 178 202 142 106 184 223 149 81 102 152 220 6 131 196 256 130 197 259 102 272 319 291 231 258 249 236 217 213 157 186 198 190 190 194 197 196 196 196 194 193 193 194 196 195 195 198 202 206 206 209 207 207 208 207 204 200 193 191 188 184
233 166 171 284 278 184 187 195 174 150 224 233 310 122 217 114 238 260 275 257 259 196 238 319 272 221 237 239 232 205 197 191 205 201 194 192 194 188 191 196 197 196 195 196 196 198 199 200 201 204 208 207 209 212 214 211 210 211 202 193 191 191 185
179 140 160 222 220 246 24 85 147 106 127 168 153 196 169 157 243 130 287 77 223 211 222 202 228 224 228 233 199 218 206 200 206 201 189 188 185 191 192 194 197 195 195 194 195 196 196 199 202 206 204 201 207 211 210 211 212 201 186 190 192 195 190
56 206 195 213 202 190 168 157 178 204 93 228 114 87 145 181 176 188 182 254 272 251 214 194 219 226 225 208 210 216 213 211 207 186 184 190 193 191 190 195 195 193 195 197 200 201 202 201 205 205 202 203 208 206 207 207 202 200 198 196 192 199 186
207 235 230 206 207 173 177 172 192 168 132 154 196 246 35 110 148 207 170 236 257 257 187 206 217 223 218 216 211 216 214 203 188 191 193 191 193 193 193 195 192 193 195 197 199 200 201 200 204 204 204 206 208 206 207 205 204 203 202 196 197 195 191
222 226 242 227 200 175 181 168 201 181 166 133 165 219 249 31 280 118 162 150 266 239 202 197 214 218 224 223 209 223 213 194 190 195 199 196 190 188 193 192 192 193 193 193 194 194 195 198 202 203 204 205 206 206 206 204 202 206 203 201 196 189 188
273 270 284 267 204 155 205 224 186 171 197 193 204 194 178 175 186 163 37 219 251 282 253 257 230 218 235 232 203 212 210 199 195 196 192 187 189 198 196 192 192 192 190 192 193 198 201 205 206 205 206 207 208 209 208 205 206 207 203 198 190 188 190
241 268 313 320 9 176 187 203 220 199 192 196 186 101 96 198 201 175 155 225 273 270 328 296 210 202 214 221 216 193 194 204 199 194 194 194 193 185 187 190 192 186 186 192 198 200 201 203 205 206 206 208 209 210 207 208 211 208 202 195 189 192 192
209 216 217 219 227 203 232 234 176 188 188 168 122 201 158 209 263 152 171 234 248 273 314 332 209 198 226 248 266 258 217 193 190 188 191 188 183 192 191 189 183 191 193 195 200 201 203 205 206 207 208 210 211 211 211 210 212 203 201 193 194 192 193
213 216 213 241 134 123 189 214 178 187 183 181 186 126 159 203 203 183 223 176 217 258 240 253 245 200 201 208 212 209 215 206 191 186 186 190 193 193 192 191 194 186 188 199 201 201 204 205 207 209 209 209 210 209 212 210 208 202 198 194 195 196 196
211 204 211 198 177 183 201 181 204 190 172 180 171 172 213 157 116 224 258 212 177 223 222 223 230 231 244 233 217 225 226 207 185 189 185 175 194 211 203 197 188 193 199 199 200 203 204 208 210 213 212 211 210 209 212 207 201 195 192 196 198 198 197
216 213 213 186 175 194 192 197 188 192 194 173 185 210 201 146 197 212 227 178 192 221 216 215 212 198 201 201 208 210 212 198 145 121 154 188 203 202 203 203 194 196 198 201 201 201 204 204 206 209 210 211 209 212 211 202 198 200 196 198 199 199 200
222 222 219 187 198 208 203 199 201 202 187 194 192 205 185 183 206 207 191 177 203 208 214 216 222 212 203 204 180 102 163 187 184 178 183 195 202 205 204 198 200 202 204 198 201 199 199 200 206 206 206 207 207 208 208 200 201 202 192 202 201 200 204
240 235 224 204 199 206 227 232 219 195 178 196 231 249 220 201 227 234 187 179 220 242 213 215 240 86 84 112 169 193 200 177 176 186 193 200 208 207 202 201 202 205 200 194 185 190 199 201 204 201 204 204 203 208 202 199 202 201 199 204 203 203 208
257 230 211 220 203 213 223 234 228 217 181 197 189 208 197 168 215 192 111 187 237 256 223 207 160 162 174 192 195 192 191 190 189 191 200 207 206 199 199 200 195 192 190 187 188 197 199 197 195 198 199 198 197 209 199 202 200 192 197 202 205 204 202
252 244 194 211 188 166 257 245 234 210 209 195 190 183 154 195 169 136 185 219 217 222 171 171 215 181 205 217 201 198 203 198 186 194 205 206 195 192 194 192 193 194 192 193 197 196 183 189 193 202 189 184 206 203 196 193 173 186 197 203 201 195 175
235 239 179 119 104 212 233 228 215 195 198 183 194 209 198 242 157 196 205 251 285 124 156 190 207 196 213 214 219 198 191 192 199 213 217 194 183 187 190 191 189 188 183 186 187 186 190 195 200 189 184 199 207 193 176 164 181 190 192 196 184 175 164
245 123 96 143 218 231 243 300 273 219 202 188 167 102 70 7 338 326 285 254 240 226 195 189 192 197 5 16 17 315 357 177 230 220 189 171 173 175 171 173 179 179 176 166 176 192 204 202 188 173 193 201 185 169 169 176 183 179 184 176 164 161 166
52 87 148 207 238 236 201 90 47 65 94 101 105 64 99 74 351 265 253 269 268 256 253 263 175 121 120 69 47 20 331 182 163 160 193 179 163 171 182 172 174 171 180 186 187 201 202 177 183 189 197 180 179 181 165 172 172 175 170 168 164 163 173
204 199 175 206 194 103 65 11 29 9 157 186 149 147 228 20 348 268 256 285 304 312 259 155 124 133 92 52 355 0 351 319 220 178 176 169 164 162 175 178 188 190 184 185 192 169 162 183 179 192 166 166 171 150 158 163 161 165 168 172 174 176 181
130 122 69 43 108 157 253 228 247 225 131 188 205 106 149 331 352 17 297 236 272 333 254 152 149 118 73 24 323 326 340 320 276 119 144 135 108 108 125 97 109 140 143 121 127 171 160 172 180 160 164 163 162 162 161 162 166 174 180 189 181 179 180
91 116 145 184 154 231 209 255 264 280 129 252 169 78 68 323 350 332 324 5 177 142 183 235 150 95 75 355 274 311 311 329 98 99 82 84 102 113 116 119 88 99 131 146 143 123 124 176 203 180 173 164 165 173 169 167 171 178 185 129 137 170 174
242 137 106 174 214 105 326 274 308 332 326 228 107 113 215 310 336 327 360 38 149 119 121 97 55 81 106 102 30 314 322 110 73 92 98 85 72 60 72 70 127 131 129 117 115 132 166 301 335 205 172 167 160 136 127 126 136 139 126 128 136 140 145
301 110 116 359 324 290 296 312 313 317 334 90 141 182 209 322 339 349 13 40 29 62 90 89 92 33 101 139 304 320 298 63 46 44 48 59 70 74 66 69 90 96 88 78 67 58 25 40 77 65 75 83 94 102 110 113 118 111 120 125 127 127 124
319 300 116 178 230 229 313 320 306 268 74 78 168 218 296 327 33 18 32 51 49 68 67 63 74 71 40 47 25 37 42 56 48 47 48 49 45 41 49 46 44 50 47 47 47 39 35 80 97 108 105 95 99 114 116 123 130 123 120 122 124 123 122
357 17 64 33 45 264 4 319 334 28 92 178 161 114 16 4 92 72 54 53 55 62 75 69 76 66 51 43 39 37 36 47 46 44 44 45 42 35 29 31 35 70 68 59 61 56 49 72 105 118 104 100 97 99 108 130 134 128 126 127 128 128 127
268 350 65 163 215 283 318 329 104 341 71 125 132 136 97 14 79 78 73 52 63 68 75 75 65 54 52 42 34 38 33 37 45 50 53 57 53 52 59 57 29 40 57 52 55 49 41 45 81 103 112 111 113 109 127 149 131 128 128 129 128 131 135
222 308 217 258 269 298 351 18 79 90 74 67 117 98 104 101 66 79 80 71 56 65 77 67 62 57 49 67 53 58 39 40 39 43 42 47 48 51 59 52 51 56 59 56 59 50 36 41 56 95 116 121 123 129 147 142 140 132 133 134 137 140 146
182 79 58 343 358 35 36 23 21 80 94 58 69 105 94 60 100 90 100 95 81 71 74 76 55 63 59 52 35 34 40 51 50 48 40 26 28 40 48 50 56 81 81 70 63 58 43 28 35 70 113 130 133 151 155 145 139 139 138 142 146 152 154
94 15 326 7 354 39 53 54 33 23 27 97 121 95 94 108 97 82 62 80 79 80 82 85 85 61 52 63 48 43 30 23 19 33 61 61 46 56 64 94 113 94 100 88 71 66 55 32 65 71 86 82 133 145 151 145 140 145 148 147 150 155 165
133 170 181 92 50 62 72 74 65 45 356 28 62 77 98 95 63 80 98 88 73 72 70 85 91 78 51 61 52 44 37 21 6 9 10 7 350 358 100 144 119 106 110 121 126 124 127 137 100 88 90 133 141 146 146 143 141 143 148 153 159 168 164
73 89 119 136 82 42 23 56 70 67 48 54 56 70 82 99 91 74 65 66 73 75 98 106 94 79 63 81 102 87 74 43 13 355 349 348 337 315 321 313 171 146 150 152 154 150 159 152 138 131 147 151 155 148 148 148 147 144 150 158 153 155 160
150 163 177 158 125 152 271 22 15 29 37 84 83 64 57 65 105 123 97 73 51 61 67 61 60 70 54 38 38 42 33 20 2 348 341 327 302 312 300 252 309 275 160 156 166 150 139 126 147 145 153 159 160 155 150 152 149 149 149 143 143 152 158
162 172 151 354 106 109 144 133 82 43 36 79 71 69 75 64 60 96 101 107 103 76 67 77 82 77 75 60 68 65 47 21 349 320 309 311 311 290 270 264 213 227 181 171 180 131 131 136 147 153 160 162 161 161 157 154 150 144 142 140 146 152 158
66 99 113 120 106 115 141 90 87 83 82 91 87 76 79 78 71 66 70 73 88 80 69 55 49 58 56 46 48 48 33 21 7 355 330 302 273 282 255 186 174 152 139 125 116 114 123 146 155 159 163 170 164 159 158 157 149 147 150 149 156 167 170
130 120 97 94 96 86 80 90 73 62 60 82 88 59 42 48 46 45 52 47 44 60 62 55 44 51 63 59 62 51 30 2 3 356 330 327 327 279 190 124 127 147 147 136 133 135 144 153 167 176 169 155 135 141 153 163 160 152 159 158 162 165 166